SCP
0 0 0 0 0 0 0 0 0 -0 0 0 0 0 0 0 0 0 0 0 0 0 0 0 0 0 0 0 0 0 0 0 0 0 0 0 0 0
0 0 0 0 0 0 0 0 0 -0 0 0 0 0 0 0 0 0 0 0 0 0 0 0 0 0 0 0 0 0 0 0 0 0 0 0 0 0
0 0 0 0 0 0 0 0 0 0 0 0 0 -0 -0 0 0 0 0 0 0 0 0 0 0 0 0 0 0 0 0 0 0 0 0 0 0 0
0 0 0 0 0 0 0 0 0 0 0 0 -0 -0 -0 -0 0 0 0 0 0 0 0 0 0 0 0 0 0 0 0 0 0 0 0 0 0 0
0 0 0 0 0 0 0 0 0 0 0 0 -0 -0 -0 -0 0 0 0 0 0 0 0 0 0 0 0 0 0 0 0 0 0 0 0 0 0 0
0 0 0 0 0 0 0 0 0 0 0 0 0 -0 -0 -0 0 0 0 0 0 0 0 0 0 0 0 0 0 0 0 0 0 0 0 0 0 0
0 0 0 0 0 0 0 0 0 0 0 0 0 0 0 -0 0 0 0 0 0 0 0 0 0 0 0 0 0 0 0 0 0 0 0 0 0 0
0 0 0 0 0 0 0 0 0 0 0 0 0 0 0 0 0 0 0 0 0 0 0 0 0 0 0 0 0 0 0 0 0 0 0 0 0 0
0 0 0 0 0 0 0 0 0 0 0 0 0 0 0 0 0 0 0 0 0 0 0 0 0 0 0 0 0 0 0 0 0 0 0 0 0 0
0 0 0 0 0 0 0 0 0 0 0 0 0 0 0 0 0 0 0 0 0 0 0 0 0 0 0 0 0 0 0 0 0 0 0 0 0 0
0 0 0 0 0 0 0 0 0 0 0 0 0 0 0 0 0 0 0 0 0 0 0 0 0 0 0 0 0 0 0 0 0 0 0 0 0 0
0 0 0 0 0 0 0 0 0 0 0 0 0 0 0 0 0 0 0 0 0 0 0 0 0 0 0 0 0 0 0 0 0 0 0 0 0 0
0 0 0 0 0 0 0 0 0 0 0 0 0 0 0 0 0 0 0 0 0 0 0 0 0 0 0 0 0 0 0 0 0 0 0 0 0 0
0 0 0 0 0 0 0 0 0 0 0 0 0 0 0 0 0 0 0 0 0 0 0 0 0 0 0 0 0 0 0 0 0 0 0 0 0 0
0 0 0 0 0 0 0 0 0 0 0 0 0 0 0 0 0 0 0 0 0 0 0 0 0 0 0 0 0 0 0 0 0 0 0 0 0 0
0 0 0 0 0 0 0 0 0 0 0 0 0 0 0 0 0 0 0 0 0 0 0 0 0 0 0 0 0 0 0 0 0 0 0 0 0 0
0 0 0 0 0 0 0 0 0 0 0 0 0 0 0 0 0 0 0 0 0 0 0 0 0 0 0 0 0 0 0 0 0 0 0 0 0 0
0 0 0 0 0 0 0 0 0 0 0 0 0 0 0 0 0 0 0 0 0 0 0 0 0 0 0 0 0 0 0 0 0 0 0 0 0 0
0 0 0 0 0 0 0 0 0 0 0 0 0 0 0 0 0 0 0 0 0 0 0 0 0 0 0 0 0 0 0 0 0 0 0 0 0 0
0 0 0 0 0 0 0 0 0 0 0 0 0 0 0 0 0 0 0 0 0 0 0 0 0 0 0 0 0 0 0 0 0 0 0 0 0 0
0 0 0 0 0 0 0 0 0 0 0 0 0 0 0 0 0 0 0 0 0 0 0 0 0 0 0 0 0 0 0 0 0 0 0 0 0 0
0 0 0 0 0 0 0 0 0 0 0 0 0 0 0 0 0 0 0 0 0 0 0 0 0 0 0 0 0 0 0 0 0 0 0 0 0 0
0 0 0 0 0 0 0 0 0 0 0 0 0 0 0 0 0 0 0 0 0 0 0 0 0 0 0 0 0 0 0 0 0 0 0 0 0 0
Wind_Speed
3 3 2 2 2 2 2 3 3 3 4 3 2 2 3 3 6 4 4 9 11 11 11 11 11 11 11 12 12 12 12 12 12 12 13 13 14 14
2 3 2 2 2 2 2 2 3 4 4 3 3 4 4 4 6 4 5 10 10 11 11 11 11 11 10 11 11 11 11 11 12 13 13 14 14 14
2 3 3 2 2 2 2 2 3 3 5 5 3 3 3 4 5 4 4 4 5 10 11 11 11 10 11 11 11 10 11 12 12 13 13 14 14 14
3 3 3 2 2 2 2 3 3 3 4 6 4 3 4 4 4 5 4 4 4 8 10 10 9 9 10 10 10 10 11 11 12 12 13 14 14 14
3 3 3 2 2 2 2 3 2 3 3 4 5 3 3 3 4 4 4 4 5 6 8 8 9 10 9 10 10 10 10 11 11 12 13 13 13 13
2 2 2 3 3 3 2 3 2 2 2 3 4 3 3 3 3 4 5 4 4 5 5 7 9 10 9 10 10 10 10 11 11 12 12 12 13 13
1 1 2 2 3 2 2 2 2 2 2 3 3 3 3 3 4 3 5 5 4 3 3 4 5 4 5 7 8 10 11 11 11 11 12 12 12 13
1 1 2 2 2 3 3 3 2 3 3 3 4 5 5 5 4 4 4 5 5 2 3 5 3 4 4 3 8 11 11 10 10 11 12 12 13 13
2 2 1 2 2 2 3 4 3 4 5 4 5 6 6 5 4 4 4 4 5 4 3 5 3 4 4 5 10 10 10 10 11 12 13 12 12 13
1 2 2 2 2 2 2 2 3 3 4 4 4 5 5 4 4 4 5 4 4 3 2 4 3 4 5 5 8 9 9 10 12 12 12 12 12 12
1 2 2 2 4 4 2 3 3 3 5 5 6 6 7 7 5 2 2 3 4 3 1 2 3 4 4 3 5 8 10 11 11 11 12 12 12 11
1 2 2 3 4 4 2 2 3 4 3 3 4 5 4 5 6 3 3 3 3 3 1 2 2 3 4 3 3 4 5 8 10 11 12 12 12 7
1 2 2 4 5 5 3 2 4 4 2 2 3 3 3 3 3 3 2 3 3 4 2 2 2 2 3 4 4 3 3 4 5 6 9 12 13 9
1 2 2 5 5 5 3 4 4 3 1 2 2 3 3 3 3 3 3 2 3 4 4 3 3 3 3 4 5 4 4 4 3 4 4 9 10 12
1 3 4 4 4 3 3 4 3 1 1 2 2 3 3 3 3 3 3 3 3 3 3 3 3 3 3 4 4 4 5 4 3 4 5 5 5 5
1 2 3 4 3 3 3 3 2 1 1 2 2 2 2 2 3 3 3 3 3 3 3 3 3 3 3 4 4 5 4 4 4 5 6 6 5 4
1 1 1 1 1 1 2 2 1 2 2 2 2 2 3 2 3 3 2 3 2 3 4 4 3 3 4 4 4 4 4 4 4 5 6 6 6 5
2 0 1 1 1 1 2 2 2 2 2 2 2 2 2 3 3 3 3 2 3 3 4 4 4 4 3 2 4 4 3 4 5 5 5 6 7 6
1 0 1 1 2 2 2 2 2 2 2 2 2 2 2 2 3 3 3 3 3 3 3 3 3 3 4 5 4 3 3 5 5 5 5 5 7 8
1 1 1 2 2 2 2 2 2 2 2 2 2 2 2 2 2 3 3 3 3 4 4 3 2 3 3 4 5 5 6 5 5 6 6 6 6 9
1 1 2 2 2 2 2 2 2 2 2 2 2 2 2 2 2 3 3 4 4 3 4 4 4 7 3 2 4 5 5 7 7 6 6 6 6 5
1 2 2 2 2 2 2 2 2 2 2 2 2 2 2 2 2 3 3 3 3 3 4 4 4 4 2 3 5 6 7 7 8 11 9 7 4 4
2 2 2 2 2 2 2 2 2 2 2 2 2 2 2 2 2 3 3 3 3 4 4 4 4 3 3 3 4 5 7 8 6 7 6 9 12 13
Wind_Direction
189 189 200 215 208 213 203 192 208 268 278 267 271 279 291 287 297 292 286 298 304 306 307 307 305 304 304 305 306 305 307 309 309 307 304 304 303 303
189 184 201 215 215 213 212 214 211 227 261 263 259 282 292 298 302 297 284 301 301 304 304 303 301 302 303 304 306 307 309 310 309 308 306 306 305 304
191 191 211 213 216 224 221 223 226 221 257 276 265 277 278 288 302 297 293 289 294 300 302 302 302 304 305 304 305 306 310 310 309 308 307 305 304 304
199 197 217 212 219 223 217 226 235 228 241 273 286 286 282 290 296 299 305 305 296 301 306 308 309 310 312 312 314 315 314 312 309 308 307 306 305 307
199 204 216 204 223 228 227 234 243 252 245 261 283 288 287 300 307 302 301 299 301 306 307 310 313 313 313 314 315 315 314 312 312 312 312 312 312 312
209 213 219 217 225 227 237 238 244 260 264 268 280 292 294 301 301 306 309 306 302 306 306 309 310 312 312 313 314 314 312 311 312 314 315 317 316 315
229 236 242 253 259 249 252 251 251 259 267 276 285 298 301 312 305 303 301 309 297 295 310 304 304 301 301 303 308 310 313 314 316 318 319 319 317 314
236 264 270 269 282 298 304 301 291 274 272 275 284 289 291 292 294 296 301 310 303 297 308 297 294 290 292 288 301 309 313 316 321 321 319 317 317 317
225 248 276 292 310 281 290 302 300 299 288 273 276 280 284 288 290 286 280 284 283 293 299 288 293 288 294 299 306 310 314 317 321 320 318 318 317 315
241 237 241 263 267 268 267 278 278 282 285 274 258 272 284 289 274 278 280 286 287 285 272 278 293 292 302 297 298 307 315 318 319 318 318 321 322 322
272 252 250 258 276 291 278 277 290 293 306 308 308 314 318 317 313 304 301 307 300 293 278 275 295 306 297 285 297 311 315 317 320 322 325 325 324 324
287 281 287 286 291 299 271 263 280 289 304 319 320 320 316 311 314 289 272 284 299 290 264 292 293 321 310 289 294 302 306 315 323 325 326 325 326 326
280 295 294 304 302 306 303 267 276 299 310 306 306 313 317 312 306 292 274 265 271 272 267 285 284 294 282 298 300 293 302 310 314 315 319 322 326 328
274 283 291 308 313 315 311 300 312 330 338 321 316 318 321 318 312 311 305 296 273 268 269 263 263 273 289 296 295 304 312 308 310 312 315 318 320 320
275 289 306 325 336 334 332 334 342 347 315 312 312 313 310 301 304 310 313 315 312 303 294 272 260 268 271 277 287 295 308 308 310 316 316 315 311 314
328 329 345 356 358 353 351 352 351 322 318 303 305 306 310 314 318 317 321 329 330 324 316 294 275 268 280 278 275 285 291 294 309 313 310 305 302 299
311 342 344 337 350 347 342 340 343 344 337 313 307 314 317 323 321 323 324 329 327 319 324 328 320 297 272 268 279 280 289 293 298 310 312 307 301 298
329 331 320 319 310 309 310 318 324 318 306 303 305 304 314 323 323 325 326 324 318 315 317 320 328 333 330 291 238 266 286 293 303 305 304 304 305 305
12 300 289 295 299 302 298 298 300 303 303 300 301 305 309 315 319 321 324 327 323 318 316 318 329 338 329 320 302 257 284 301 306 306 301 294 295 300
332 281 281 284 287 291 296 299 303 311 308 304 303 304 305 308 314 318 319 322 320 319 319 322 324 316 296 295 296 294 293 290 295 301 303 297 288 292
302 291 284 282 284 289 293 294 296 298 304 306 304 306 307 309 308 310 311 317 322 316 315 313 303 312 300 298 297 298 296 296 299 296 301 302 304 305
287 286 289 288 286 286 289 292 297 295 297 296 295 299 301 300 301 305 307 309 309 305 302 302 308 317 321 306 300 301 306 311 309 306 296 285 291 298
287 288 287 288 283 282 281 282 284 286 285 283 285 287 293 296 296 295 297 299 302 305 310 313 319 318 306 292 295 300 304 311 316 318 308 305 300 293